Weather History for London, United Kingdom

Change the Weather History Date:

Saturday, August 2, 2014

  Actual Average Record
Temperature  
Mean Temperature 68 °F -  
Max Temperature 76 °F 72 °F 87 °F (1999)
Min Temperature 59 °F 56 °F 51 °F (1996)
Cooling Degree Days 3    
Growing Degree Days 18 (Base 50)    
Moisture  
Dew Point 56 °F    
Average Humidity 68    
Maximum Humidity 88    
Minimum Humidity 43    
Precipitation  
Precipitation 0.08 in - - ()
Sea Level Pressure  
Sea Level Pressure 29.64 in    
Wind  
Wind Speed 8 mph ()    
Max Wind Speed 18 mph    
Max Gust Speed 28 mph    
Visibility 7.8 miles    
Events Rain    
Averages and records for this station are not official NWS values.
T = Trace of Precipitation, MM = Missing Value Source: Averaged Metar Reports

Daily Weather History Graph

Daily Weather History Graph

Search for Another Location

Airport:

Trip Planner

Search our weather history database for the weather conditions in past years. The results will help you decide how hot, cold, wet, or windy it might be!

Date:

Astronomy

Aug. 02, 2014 Rise Set
Actual Time 5:26 AM BST 8:48 PM BST
Civil Twilight 4:46 AM BST 9:28 PM BST
Nautical Twilight 3:52 AM BST 10:22 PM BST
Astronomical Twilight 2:37 AM BST 11:35 PM BST
Moon 12:23 PM BST (8/2) 11:06 PM BST (8/2)
Length of Visible Light 16h 41m
Length of Day
15h 21m
Waxing Crescent, 34% of the Moon is Illuminated
Aug 2
Waxing Crescent
Aug 4
First Quarter
Aug 10
Full
Aug 17
Last Quarter
Aug 25
New

Hourly Weather History & Observations

Time (BST) Temp. Dew Point Humidity Pressure Visibility Wind Dir Wind Speed Gust Speed Precip Events Conditions
12:00 AM 62 °F 55 °F 71% 29.73 in 12 mi South 5.8 mph - -   Scattered Clouds
12:20 AM 62.6 °F 57.2 °F 82% 29.71 in - South 5.8 mph - N/A   Clear
12:50 AM 62.6 °F 57.2 °F 82% 29.71 in - South 5.8 mph - N/A   Clear
1:00 AM 62 °F 57 °F 77% 29.72 in 11 mi South 6.9 mph - -   Partly Cloudy
1:20 AM 62.6 °F 57.2 °F 82% 29.71 in - SSW 6.9 mph - N/A   Clear
1:50 AM 62.6 °F 57.2 °F 82% 29.71 in - South 5.8 mph - N/A   Clear
2:00 AM 62 °F 57 °F 78% 29.71 in 11 mi South 6.9 mph - -   Mostly Cloudy
2:20 AM 62.6 °F 57.2 °F 82% 29.71 in 6.2 mi South 5.8 mph - N/A   Unknown
2:50 AM 62.6 °F 57.2 °F 82% 29.68 in 6.2 mi SE 5.8 mph - N/A   Unknown
3:00 AM 62 °F 57 °F 77% 29.70 in 11 mi SE 5.8 mph - -   Mostly Cloudy
3:20 AM 60.8 °F 57.2 °F 88% 29.68 in 6.2 mi SE 5.8 mph - N/A   Unknown
3:50 AM 62.6 °F 59.0 °F 88% 29.68 in - SSE 5.8 mph - N/A   Clear
4:00 AM 62 °F 57 °F 79% 29.68 in 8 mi SE 5.8 mph - -   Partly Cloudy
4:20 AM 62.6 °F 59.0 °F 88% 29.68 in - SE 5.8 mph - N/A   Clear
4:50 AM 62.6 °F 59.0 °F 88% 29.65 in - Variable 3.5 mph - N/A   Clear
5:00 AM 62 °F 57 °F 79% 29.66 in 9 mi SE 4.6 mph - -   Mostly Cloudy
5:20 AM 62.6 °F 59.0 °F 88% 29.65 in - SE 3.5 mph - N/A   Clear
5:50 AM 62.6 °F 57.2 °F 82% 29.65 in - SE 3.5 mph - N/A   Clear
6:00 AM 62 °F 57 °F 79% 29.65 in 11 mi SE 3.5 mph - -   Mostly Cloudy
6:20 AM 62.6 °F 57.2 °F 82% 29.65 in - ESE 3.5 mph - N/A   Clear
6:50 AM 62.6 °F 57.2 °F 82% 29.65 in 6.2 mi SE 5.8 mph - N/A   Partly Cloudy
7:00 AM 62 °F 57 °F 78% 29.65 in 9 mi SE 5.8 mph - -  
7:20 AM 62.6 °F 57.2 °F 82% 29.65 in 6.2 mi South 4.6 mph - N/A   Scattered Clouds
7:50 AM 62.6 °F 57.2 °F 82% 29.65 in 6.2 mi South 4.6 mph - N/A   Mostly Cloudy
8:00 AM 62 °F 56 °F 77% 29.65 in 9 mi South 4.6 mph - -   Partly Cloudy
8:20 AM 62.6 °F 55.4 °F 77% 29.65 in 6.2 mi SE 5.8 mph - N/A   Mostly Cloudy
8:50 AM 62.6 °F 57.2 °F 82% 29.62 in 6.2 mi ESE 6.9 mph - N/A   Scattered Clouds
9:00 AM 63 °F 55 °F 69% 29.64 in 11 mi ESE 8.1 mph - -   Mostly Cloudy
9:20 AM 62.6 °F 57.2 °F 82% 29.62 in 6.2 mi SE 6.9 mph - N/A Rain Light Rain
9:50 AM 64.4 °F 57.2 °F 77% 29.62 in 6.2 mi SE 9.2 mph - N/A   Scattered Clouds
10:00 AM 65 °F 56 °F 64% 29.63 in 11 mi SE 10.4 mph - - Rain Rain
10:20 AM 66.2 °F 57.2 °F 73% 29.62 in 6.2 mi SSE 11.5 mph - N/A   Partly Cloudy
10:50 AM 71.6 °F 57.2 °F 60% 29.62 in 6.2 mi SSE 12.7 mph - N/A   Partly Cloudy
11:00 AM 70 °F 57 °F 54% 29.62 in 11 mi SSE 11.5 mph - -   Partly Cloudy
11:20 AM 71.6 °F 57.2 °F 60% 29.62 in 6.2 mi South 11.5 mph - N/A   Scattered Clouds
11:50 AM 69.8 °F 57.2 °F 64% 29.62 in 6.2 mi South 12.7 mph 24.2 mph N/A   Scattered Clouds
12:00 PM 71 °F 56 °F 50% 29.61 in 13 mi South 12.7 mph - -   Scattered Clouds
12:20 PM 71.6 °F 57.2 °F 60% 29.59 in 6.2 mi SSE 15.0 mph 26.5 mph N/A   Partly Cloudy
12:50 PM 73.4 °F 59.0 °F 61% 29.59 in 6.2 mi South 12.7 mph - N/A   Partly Cloudy
1:00 PM 73 °F 57 °F 48% 29.60 in 13 mi SSE 15.0 mph - -   Scattered Clouds
1:20 PM 73.4 °F 57.2 °F 57% 29.59 in 6.2 mi South 16.1 mph - N/A   Scattered Clouds
1:50 PM 75.2 °F 57.2 °F 53% 29.59 in 6.2 mi South 18.4 mph - N/A   Scattered Clouds
2:00 PM 75 °F 57 °F 43% 29.59 in 14 mi South 17.3 mph - -   Scattered Clouds
2:20 PM 73.4 °F 57.2 °F 57% 29.59 in 6.2 mi South 18.4 mph - N/A   Scattered Clouds
2:50 PM 73.4 °F 57.2 °F 57% 29.59 in 6.2 mi South 16.1 mph - N/A   Scattered Clouds
3:00 PM 72 °F 56 °F 47% 29.59 in 22 mi South 18.4 mph - -   Scattered Clouds
3:20 PM 71.6 °F 57.2 °F 60% 29.59 in 6.2 mi SSW 16.1 mph - N/A Rain Rain Showers
3:50 PM 68.0 °F 60.8 °F 78% 29.59 in 6.2 mi South 12.7 mph - N/A   Partly Cloudy
4:00 PM 68 °F 62 °F 74% 29.60 in 25 mi South 11.5 mph - - Rain Rain
4:20 PM 71.6 °F 60.8 °F 69% 29.59 in 6.2 mi South 13.8 mph - N/A   Scattered Clouds
4:50 PM 71.6 °F 60.8 °F 69% 29.59 in 6.2 mi SSW 13.8 mph - N/A   Scattered Clouds
5:00 PM 72 °F 59 °F 55% 29.59 in 28 mi South 12.7 mph - -  
5:20 PM 73.4 °F 57.2 °F 57% 29.59 in 6.2 mi SSW 17.3 mph - N/A   Scattered Clouds
5:50 PM 73.4 °F 55.4 °F 53% 29.59 in 6.2 mi SSW 16.1 mph - N/A   Partly Cloudy
6:00 PM 73 °F 56 °F 44% 29.58 in 25 mi SSW 16.1 mph - -   Scattered Clouds
6:20 PM 73.4 °F 55.4 °F 53% 29.59 in 6.2 mi SW 13.8 mph - N/A   Scattered Clouds
6:50 PM 71.6 °F 55.4 °F 57% 29.59 in 6.2 mi SW 13.8 mph - N/A   Scattered Clouds
7:00 PM 72 °F 54 °F 43% 29.60 in 25 mi SSW 15.0 mph - -  
7:20 PM 71.6 °F 55.4 °F 57% 29.59 in 6.2 mi SSW 15.0 mph - N/A   Scattered Clouds
7:50 PM 69.8 °F 53.6 °F 56% 29.62 in 6.2 mi SSW 16.1 mph 27.6 mph N/A   Partly Cloudy
8:00 PM 69 °F 53 °F 46% 29.62 in 28 mi SSW 18.4 mph - -  
8:20 PM 68.0 °F 53.6 °F 60% 29.62 in 6.2 mi SSW 12.7 mph - N/A   Partly Cloudy
8:50 PM 66.2 °F 53.6 °F 64% 29.65 in 6.2 mi SW 13.8 mph - N/A   Scattered Clouds
9:00 PM 67 °F 52 °F 48% 29.65 in 22 mi SW 13.8 mph - -   Scattered Clouds
9:20 PM 66.2 °F 53.6 °F 64% 29.65 in 6.2 mi West 11.5 mph - N/A   Scattered Clouds
9:50 PM 64.4 °F 53.6 °F 68% 29.68 in 6.2 mi West 11.5 mph - N/A   Scattered Clouds
10:00 PM 65 °F 52 °F 53% 29.67 in 25 mi West 11.5 mph - -   Partly Cloudy
10:20 PM 64.4 °F 51.8 °F 64% 29.68 in 6.2 mi West 15.0 mph - N/A   Scattered Clouds
10:50 PM 62.6 °F 51.8 °F 68% 29.68 in 6.2 mi West 12.7 mph - N/A   Scattered Clouds
11:00 PM 64 °F 50 °F 51% 29.70 in 19 mi West 12.7 mph - -   Mostly Cloudy
11:20 PM 60.8 °F 51.8 °F 72% 29.71 in - West 11.5 mph - N/A   Clear
11:50 PM 59.0 °F 50.0 °F 72% 29.71 in - West 10.4 mph - N/A   Clear